PI8ANH-13 Weather Reports


time (UTC)temp
C
wind
direction
speed
KPH
gust
KPH
rain 1hr
cm
rain 24hr
cm
rain mn
cm
humidity
%
barometer
mb
20260507084457 12 360 11.3 0.0 0.00 0.00 0.00 67 1015.0
20260507082958 12 360 11.3 0.0 0.00 0.00 0.00 67 1015.0
20260507081457 12 360 11.3 0.0 0.00 0.00 0.00 67 1015.0
20260507075957 11 360 11.3 0.0 0.00 0.00 0.00 71 1015.0
20260507074457 11 360 11.3 0.0 0.00 0.00 0.00 71 1015.0
20260507072957 10 360 9.7 0.0 0.00 0.00 0.00 76 1015.0
20260507071458 10 360 9.7 0.0 0.00 0.00 0.00 76 1015.0
20260507065958 7 340 9.7 0.0 0.00 0.00 0.00 81 1015.0
20260507064458 7 340 9.7 0.0 0.00 0.00 0.00 81 1015.0
20260507062957 6 330 4.8 0.0 0.00 0.00 0.00 87 1014.0
20260507061458 6 330 4.8 0.0 0.00 0.00 0.00 87 1014.0
20260507055957 6 330 4.8 0.0 0.00 0.00 0.00 87 1014.0
20260507054457 6 330 4.8 0.0 0.00 0.00 0.00 87 1014.0
20260507052957 6 320 8.0 0.0 0.00 0.00 0.00 87 1014.0
20260507051458 6 320 8.0 0.0 0.00 0.00 0.00 87 1014.0
20260507045958 6 300 3.2 0.0 0.00 0.00 0.00 87 1014.0
20260507044457 6 300 3.2 0.0 0.00 0.00 0.00 87 1014.0
20260507042957 6 320 4.8 0.0 0.00 0.00 0.00 87 1013.0
20260507041457 6 320 4.8 0.0 0.00 0.00 0.00 87 1013.0
20260507035957 5 350 1.6 0.0 0.00 0.00 0.00 93 1013.0
20260507034458 5 350 1.6 0.0 0.00 0.00 0.00 93 1013.0
20260507032957 5 320 3.2 0.0 0.00 0.00 0.00 93 1013.0
20260507031458 5 320 3.2 0.0 0.00 0.00 0.00 93 1013.0
20260507025957 5 310 3.2 0.0 0.00 0.00 0.00 93 1013.0
20260507024457 5 310 3.2 0.0 0.00 0.00 0.00 93 1013.0
20260507022957 6 0.0 0.0 0.00 0.00 0.00 87 1013.0
20260507021457 6 0.0 0.0 0.00 0.00 0.00 87 1013.0
20260507015957 6 320 4.8 0.0 0.00 0.00 0.00 87 1013.0
20260507014458 6 320 4.8 0.0 0.00 0.00 0.00 87 1013.0
20260507012958 6 340 8.0 0.0 0.00 0.00 0.00 87 1013.0
20260507011458 6 340 8.0 0.0 0.00 0.00 0.00 87 1013.0
20260507005958 7 340 11.3 0.0 0.00 0.00 0.00 81 1012.0
20260507004457 7 340 11.3 0.0 0.00 0.00 0.00 81 1012.0
20260507002957 7 350 11.3 0.0 0.00 0.00 0.00 81 1012.0
20260507001457 7 350 11.3 0.0 0.00 0.00 0.00 81 1012.0
20260506235957 7 350 11.3 0.0 0.00 0.00 0.00 81 1012.0
20260506234457 7 350 11.3 0.0 0.00 0.00 0.00 81 1012.0
20260506232957 7 360 12.9 0.0 0.00 0.00 0.00 81 1012.0
20260506231457 7 360 12.9 0.0 0.00 0.00 0.00 81 1012.0
20260506225957 8 350 11.3 0.0 0.00 0.00 0.00 81 1012.0
20260506224457 8 350 11.3 0.0 0.00 0.00 0.00 81 1012.0
20260506222957 8 340 8.0 0.0 0.00 0.00 0.00 81 1012.0
20260506221458 8 340 8.0 0.0 0.00 0.00 0.00 81 1012.0
20260506215957 8 3.2 0.0 0.00 0.00 0.00 87 1012.0
20260506214458 8 3.2 0.0 0.00 0.00 0.00 87 1012.0
20260506212957 8 350 3.2 0.0 0.00 0.00 0.00 87 1012.0
20260506211457 8 350 3.2 0.0 0.00 0.00 0.00 87 1012.0
20260506205957 8 340 3.2 0.0 0.00 0.00 0.00 87 1011.0
20260506204457 8 340 3.2 0.0 0.00 0.00 0.00 87 1011.0
20260506202957 8 310 1.6 0.0 0.00 0.00 0.00 81 1011.0
20260506201458 8 310 1.6 0.0 0.00 0.00 0.00 81 1011.0
20260506195958 10 330 4.8 0.0 0.00 0.00 0.00 82 1011.0
20260506194458 10 330 4.8 0.0 0.00 0.00 0.00 82 1011.0
20260506192957 10 20 4.8 0.0 0.00 0.00 0.00 76 1011.0
20260506191457 10 20 4.8 0.0 0.00 0.00 0.00 76 1011.0
20260506185957 11 20 4.8 0.0 0.00 0.00 0.00 67 1010.0
20260506184457 11 20 4.8 0.0 0.00 0.00 0.00 67 1010.0
20260506182958 11 20 9.7 0.0 0.00 0.00 0.00 67 1010.0
20260506181457 11 20 9.7 0.0 0.00 0.00 0.00 67 1010.0
20260506175957 11 30 12.9 0.0 0.00 0.00 0.00 62 1010.0
20260506174457 11 30 12.9 0.0 0.00 0.00 0.00 62 1010.0
20260506172957 11 10 12.9 0.0 0.00 0.00 0.00 67 1010.0
20260506171458 11 10 12.9 0.0 0.00 0.00 0.00 67 1010.0
20260506165958 11 20 12.9 0.0 0.00 0.00 0.00 67 1010.0
20260506164458 11 20 12.9 0.0 0.00 0.00 0.00 67 1010.0
20260506162958 11 30 16.1 0.0 0.00 0.00 0.00 62 1010.0
20260506161458 11 30 16.1 0.0 0.00 0.00 0.00 62 1010.0
20260506155958 11 40 14.5 0.0 0.00 0.00 0.00 67 1009.0
20260506154458 11 40 14.5 0.0 0.00 0.00 0.00 67 1009.0
20260506152957 11 40 22.5 40.2 0.00 0.00 0.00 67 1009.0
20260506151458 11 40 22.5 40.2 0.00 0.00 0.00 67 1009.0
20260506145958 11 40 24.1 0.0 0.00 0.00 0.00 71 1009.0
20260506144457 11 40 24.1 0.0 0.00 0.00 0.00 71 1009.0
20260506142957 11 50 20.9 0.0 0.00 0.00 0.00 71 1009.0
20260506141457 11 50 20.9 0.0 0.00 0.00 0.00 71 1009.0
20260506135958 11 30 20.9 0.0 0.00 0.00 0.00 71 1009.0
20260506134457 11 30 20.9 0.0 0.00 0.00 0.00 71 1009.0
20260506132957 11 20 22.5 0.0 0.00 0.00 0.00 67 1009.0
20260506131457 11 20 22.5 0.0 0.00 0.00 0.00 67 1009.0
20260506125958 11 360 19.3 0.0 0.00 0.00 0.00 67 1009.0
20260506124458 11 360 19.3 0.0 0.00 0.00 0.00 67 1009.0
20260506122957 11 10 24.1 0.0 0.00 0.00 0.00 67 1009.0
20260506121458 11 10 24.1 0.0 0.00 0.00 0.00 67 1009.0
20260506115958 11 10 29.0 0.0 0.00 0.00 0.00 62 1009.0
20260506114458 11 10 29.0 0.0 0.00 0.00 0.00 62 1009.0
20260506112957 11 20 25.7 0.0 0.00 0.00 0.00 62 1009.0
20260506111458 11 20 25.7 0.0 0.00 0.00 0.00 62 1009.0
20260506105958 11 10 25.7 0.0 0.00 0.00 0.00 67 1008.0
20260506104458 11 10 25.7 0.0 0.00 0.00 0.00 67 1008.0
20260506102958 10 20 19.3 0.0 0.00 0.00 0.00 71 1008.0
20260506101458 10 20 19.3 0.0 0.00 0.00 0.00 71 1008.0
20260506095957 11 10 20.9 0.0 0.00 0.00 0.00 67 1008.0
20260506094457 11 10 20.9 0.0 0.00 0.00 0.00 67 1008.0
20260506092957 10 20 19.3 0.0 0.00 0.00 0.00 66 1008.0
20260506091457 10 20 19.3 0.0 0.00 0.00 0.00 66 1008.0
20260506085957 10 30 19.3 0.0 0.00 0.00 0.00 71 1008.0